Location: *
(17.3280°S, 114.7300°W)
Time: 11:27:57
(UTC+00:00)

Envisat - Pass Details

Date: 05 November 2020
Orbit: 764 x 766 km, 98.1° (Epoch: 28 November)

Event Time Altitude Azimuth Distance (km) Brightness Sun altitude
Rises 02:21:33 0° 193° (SSW) 3,249 6.7 -8.8°
Reaches altitude 10° 02:24:31 10° 210° (SSW) 2,316 6.3 -9.5°
Maximum altitude 02:27:56 18° 253° (WSW) 1,802 6.2 -10.2°
Drops below altitude 10° 02:31:20 10° 295° (WNW) 2,301 6.1 -11.0°
Sets 02:34:18 0° 313° (NW) 3,220 6.6 -11.7°
